1493960401.17,2674,15.63,73724.0,4.35,-30.77,-32.13,0,*48
1493960402.44,2675,15.63,73724.0,4.39,-30.89,-32.19,0,*4E
1493960403.68,2676,15.63,73724.8,4.39,-31.11,-32.57,0,*47
1493960404.91,2677,15.63,73722.8,4.41,-30.83,-31.95,0,*4E
1493960406.15,2678,15.63,73724.0,4.39,-30.77,-32.13,0,*48
1493960407.34,2679,15.63,73726.3,4.41,-31.05,-32.51,0,*44
1493960408.59,2680,15.63,73724.3,4.41,-30.73,-32.07,0,*41
1493960409.78,2681,15.63,73724.8,4.41,-31.05,-32.35,0,*41
1493960411.0,2682,15.63,73724.8,4.41,-31.45,-32.85,0,*4D
1493960412.22,2683,15.63,73724.0,4.41,-30.83,-32.29,0,*41
1493960413.47,2684,15.63,73724.0,4.41,-30.95,-32.45,0,*4B
1493960414.74,2685,15.63,73726.0,4.43,-30.89,-32.07,0,*43
1493960415.96,2686,15.63,73724.3,4.41,-30.67,-31.91,0,*4E
1493960417.19,2687,15.63,73726.8,4.43,-30.45,-31.73,0,*41
1493960418.45,2688,15.63,73724.0,4.43,-30.51,-31.73,0,*4B
1493960419.64,2689,15.63,73728.8,4.45,-30.67,-32.01,0,*4F
1493960420.88,2690,15.63,73724.5,4.47,-30.55,-31.79,0,*48
1493960422.06,2691,15.63,73726.3,4.45,-30.45,-31.67,0,*45
1493960423.28,2692,15.63,73724.5,4.47,-30.45,-31.79,0,*4B
1493960424.52,2693,15.63,73724.0,4.47,-30.61,-31.79,0,*4C
1493960425.77,2694,15.63,73726.0,4.47,-30.95,-32.39,0,*47
1493960426.99,2695,15.63,73728.3,4.49,-30.77,-32.01,0,*4F
1493960428.21,2696,15.63,73728.3,4.49,-30.83,-32.19,0,*4E
1493960429.46,2697,15.63,73728.3,4.51,-30.77,-32.35,0,*43
1493960430.68,2698,15.63,73726.8,4.49,-31.45,-32.85,0,*4E
1493960431.95,2699,15.63,73724.5,4.51,-30.95,-32.29,0,*4C
1493960433.17,2700,15.63,73724.0,4.49,-30.73,-32.01,0,*46
1493960434.41,2701,15.63,73726.8,4.51,-30.73,-32.13,0,*4D
1493960435.67,2702,15.63,73724.5,4.51,-30.55,-31.91,0,*43
1493960436.93,2703,15.63,73724.5,4.51,-30.51,-31.73,0,*4A
1493960438.19,2704,15.63,73726.5,4.51,-30.51,-31.73,0,*4D
1493960439.43,2705,15.63,73724.5,4.53,-30.51,-31.73,0,*4E
1493960440.66,2706,15.63,73722.8,4.53,-30.55,-31.73,0,*49
1493960441.93,2707,15.63,73724.5,4.55,-30.51,-31.85,0,*43
1493960443.2,2708,15.63,73726.3,4.55,-30.73,-32.07,0,*45
1493960444.42,2709,15.63,73722.0,4.57,-30.77,-32.23,0,*44
1493960445.66,2710,15.63,73724.8,4.57,-30.77,-32.19,0,*45
1493960446.88,2711,15.63,73724.0,4.53,-30.77,-32.13,0,*4A
1493960448.1,2712,15.63,73726.5,4.57,-30.77,-32.35,0,*49
1493960449.34,2713,15.63,73726.8,4.55,-31.01,-32.45,0,*4D
1493960450.54,2714,15.63,73724.5,4.57,-30.83,-32.35,0,*44
1493960451.73,2715,15.63,73726.0,4.57,-31.01,-32.39,0,*42
1493960452.98,2716,15.63,73724.5,4.61,-30.61,-32.07,0,*4E
1493960454.22,2717,15.63,73726.0,4.61,-30.55,-31.85,0,*41
1493960455.46,2718,15.63,73726.5,4.57,-30.55,-32.07,0,*42
1493960456.68,2719,15.63,73724.5,4.61,-31.17,-32.75,0,*44
1493960457.91,2720,15.63,73724.5,4.61,-31.45,-32.75,0,*49
1493960459.12,2721,15.63,73724.8,4.61,-31.17,-32.69,0,*42
1493960460.33,2722,15.63,73724.3,4.57,-31.11,-32.57,0,*4F
1493960461.6,2723,15.63,73726.5,4.63,-30.77,-32.29,0,*41
1493960462.83,2724,15.63,73722.5,4.61,-31.11,-32.69,0,*41
1493960464.06,2725,15.63,73724.8,4.61,-30.67,-32.19,0,*47
1493960465.31,2726,15.63,73726.0,4.61,-30.77,-32.19,0,*45
1493960466.56,2727,15.63,73726.8,4.63,-30.95,-32.35,0,*44
1493960467.81,2728,15.63,73724.0,4.61,-30.77,-32.19,0,*4B
1493960469.06,2729,15.63,73724.5,4.61,-30.77,-32.07,0,*45
1493960470.3,2730,15.63,73726.5,4.65,-30.61,-31.95,0,*46
1493960471.54,2731,15.63,73724.5,4.65,-30.55,-31.95,0,*40
1493960472.76,2732,15.63,73726.8,4.65,-31.11,-32.69,0,*42
1493960473.98,2733,15.63,73726.8,4.65,-30.89,-32.35,0,*4A
1493960475.22,2734,15.63,73726.3,4.65,-30.95,-32.45,0,*47
1493960476.44,2735,15.63,73726.8,4.65,-30.89,-32.35,0,*4C
1493960477.69,2736,15.63,73726.5,4.67,-30.89,-32.39,0,*41
1493960478.96,2737,15.63,73724.0,4.67,-30.89,-32.45,0,*4B
1493960480.2,2738,15.63,73726.3,4.67,-30.73,-32.23,0,*41
1493960481.45,2739,15.63,73724.3,4.67,-30.89,-32.39,0,*4E
1493960482.7,2740,15.63,73728.0,4.67,-31.33,-32.79,0,*44
1493960483.9,2741,15.63,73724.8,4.69,-30.83,-32.39,0,*45
1493960485.15,2742,15.63,73728.0,4.67,-30.89,-32.39,0,*42
1493960486.37,2743,15.63,73726.3,4.69,-30.67,-32.19,0,*4F
1493960487.59,2744,15.63,73724.5,4.69,-30.61,-32.01,0,*47
1493960488.83,2745,15.63,73724.8,4.69,-30.51,-31.85,0,*4A
1493960490.04,2746,15.63,73726.0,4.73,-30.89,-32.35,0,*4F
1493960491.3,2747,15.63,73726.0,4.73,-31.23,-32.75,0,*4B
1493960492.54,2748,15.63,73728.5,4.73,-31.11,-32.63,0,*42
1493960493.77,2749,15.63,73726.0,4.73,-31.23,-32.69,0,*48
1493960495.02,2750,15.63,73728.8,4.73,-31.11,-32.45,0,*4F
1493960496.26,2751,15.63,73724.3,4.73,-30.77,-32.29,0,*45
1493960497.51,2752,15.63,73726.5,4.73,-30.89,-32.45,0,*4D
1493960498.73,2753,15.63,73728.8,4.73,-30.95,-32.51,0,*44
1493960499.97,2754,15.63,73726.5,4.73,-30.73,-32.29,0,*44
1493960501.22,2755,15.63,73728.3,4.73,-30.95,-32.45,0,*47
1493960502.43,2756,15.63,73724.8,4.73,-31.05,-32.45,0,*4C
1493960503.63,2757,15.63,73730.0,4.73,-31.05,-32.51,0,*48
1493960504.82,2758,15.63,73726.3,4.73,-31.05,-32.51,0,*47
1493960506.02,2759,15.63,73724.3,4.73,-31.05,-32.51,0,*46
1493960507.23,2760,15.63,73728.0,4.73,-31.05,-32.63,0,*4D
1493960508.48,2761,15.63,73726.0,4.73,-30.89,-32.45,0,*4D
1493960509.72,2762,15.63,73726.0,4.73,-30.89,-32.45,0,*4E
1493960510.99,2763,15.63,73724.5,4.75,-30.95,-32.45,0,*44
1493960512.24,2764,15.63,73726.5,4.77,-30.89,-32.45,0,*4C
1493960513.51,2765,15.63,73728.3,4.75,-30.95,-32.45,0,*42
1493960514.78,2766,15.63,73724.8,4.75,-30.77,-32.29,0,*47
1493960516.0,2767,15.63,73726.3,4.77,-30.83,-32.29,0,*4F
1493960517.22,2768,15.63,73726.0,4.77,-30.67,-32.29,0,*4A
1493960518.43,2769,15.63,73726.5,4.77,-30.55,-32.13,0,*43
1493960519.71,2770,15.63,73724.3,4.79,-30.61,-32.07,0,*47
1493960520.95,2771,15.63,73726.3,4.79,-30.61,-32.01,0,*40
1493960522.19,2772,15.63,73728.0,4.79,-30.51,-32.01,0,*40
1493960523.44,2773,15.63,73726.0,4.79,-30.95,-32.35,0,*4E
1493960524.71,2774,15.63,73724.5,4.79,-30.61,-32.19,0,*4C
1493960525.93,2775,15.63,73724.0,4.79,-30.67,-32.23,0,*42
1493960527.15,2776,15.63,73724.8,4.81,-30.67,-32.19,0,*4F
1493960528.38,2777,15.63,73724.8,4.81,-30.95,-32.51,0,*4F
1493960529.6,2778,15.63,73724.0,4.81,-30.77,-32.35,0,*4E
1493960530.8,2779,15.63,73728.3,4.81,-30.83,-32.39,0,*48
1493960532.04,2780,15.63,73726.3,4.85,-31.11,-32.45,0,*4B
1493960533.26,2781,15.63,73724.0,4.85,-30.95,-32.35,0,*40
1493960534.51,2782,15.63,73724.0,4.85,-30.89,-32.45,0,*49
1493960535.73,2783,15.56,73726.0,4.85,-31.23,-32.69,0,*47
1493960536.95,2784,15.63,73724.0,4.85,-31.11,-32.57,0,*4C
1493960538.17,2785,15.56,73724.8,4.85,-31.11,-32.57,0,*4D
1493960539.4,2786,15.63,73724.0,4.85,-31.11,-32.69,0,*43
1493960540.61,2787,15.56,73724.8,4.85,-31.23,-32.57,0,*4E
1493960541.84,2788,15.63,73724.5,4.85,-31.23,-32.69,0,*4C
1493960543.07,2789,15.56,73724.0,4.85,-30.95,-32.51,0,*4A
1493960544.29,2790,15.63,73728.5,4.87,-31.05,-32.51,0,*48
1493960545.54,2791,15.56,73724.3,4.87,-31.11,-32.69,0,*47
1493960546.77,2792,15.56,73726.0,4.87,-31.05,-32.51,0,*4A
1493960548.02,2793,15.56,73724.5,4.87,-31.11,-32.51,0,*4E
1493960549.26,2794,15.63,73724.5,4.87,-31.11,-32.57,0,*4F
1493960550.52,2795,15.63,73724.5,4.87,-31.11,-32.69,0,*43
1493960551.73,2796,15.56,73724.8,4.87,-31.05,-32.57,0,*48
1493960552.98,2797,15.56,73726.8,4.87,-31.11,-32.69,0,*41
1493960554.2,2798,15.56,73726.8,4.89,-31.33,-32.85,0,*42
1493960555.43,2799,15.56,73726.0,4.89,-31.11,-32.39,0,*44
1493960556.62,2800,15.56,73724.8,4.89,-31.01,-32.51,0,*44
1493960557.83,2801,15.56,73726.8,4.89,-31.05,-32.79,0,*4B
1493960559.04,2802,15.56,73722.5,4.89,-31.39,-33.03,0,*4B
1493960560.29,2803,15.56,73724.5,4.89,-30.95,-32.45,0,*4E
1493960561.52,2804,15.63,73726.8,4.89,-30.89,-32.29,0,*4E
1493960562.74,2805,15.56,73726.0,4.91,-30.83,-32.23,0,*46
1493960563.94,2806,15.56,73724.3,4.89,-31.17,-32.69,0,*4E
1493960565.16,2807,15.63,73728.0,4.89,-31.33,-32.85,0,*4B
1493960566.35,2808,15.63,73726.5,4.89,-31.05,-32.51,0,*48
1493960567.58,2809,15.63,73724.5,4.91,-31.01,-32.63,0,*45
1493960568.79,2810,15.56,73726.8,4.91,-31.01,-32.57,0,*4A
1493960570.01,2811,15.56,73726.5,4.91,-30.83,-32.39,0,*48
1493960571.25,2812,15.56,73726.0,4.91,-30.95,-32.57,0,*44
1493960572.5,2813,15.56,73724.3,4.93,-30.77,-32.23,0,*48
1493960573.75,2814,15.56,73724.5,4.91,-31.29,-32.75,0,*44
1493960575.0,2815,15.56,73726.8,4.93,-31.01,-32.45,0,*4E
1493960576.25,2816,15.56,73726.8,4.93,-31.11,-32.57,0,*4F
1493960577.5,2817,15.56,73724.0,4.93,-31.29,-32.63,0,*42
1493960578.78,2818,15.56,73724.8,4.93,-31.11,-32.45,0,*42
1493960580.03,2819,15.56,73724.3,4.93,-31.29,-32.79,0,*47
1493960581.3,2820,15.56,73722.0,4.93,-30.95,-32.45,0,*44
1493960582.53,2821,15.56,73726.5,4.95,-30.77,-32.35,0,*48
1493960583.76,2822,15.63,73728.3,4.93,-30.83,-32.39,0,*4A
1493960584.96,2823,15.56,73726.0,4.95,-31.05,-32.51,0,*4C
1493960586.19,2824,15.56,73724.3,4.95,-31.23,-32.69,0,*44
1493960587.43,2825,15.56,73724.5,4.95,-31.11,-32.69,0,*44
1493960588.65,2826,15.56,73726.0,4.95,-31.11,-32.57,0,*4A
1493960589.87,2827,15.56,73724.8,4.95,-31.11,-32.57,0,*4B
1493960591.14,2828,15.56,73724.0,4.93,-31.51,-33.09,0,*4C
1493960592.4,2829,15.56,73724.5,4.93,-31.29,-32.75,0,*48
1493960593.63,2830,15.56,73724.5,4.95,-31.17,-32.75,0,*4B
1493960594.86,2831,15.56,73724.8,4.95,-31.11,-32.69,0,*41
1493960596.1,2832,15.56,73724.0,4.95,-31.11,-32.69,0,*42
1493960597.33,2833,15.56,73728.3,4.95,-31.23,-32.69,0,*42
1493960598.59,2834,15.56,73726.0,4.95,-31.23,-32.85,0,*47
1493960599.81,2835,15.56,73724.5,4.95,-31.11,-32.57,0,*48
1493960601.0,2836,15.56,73724.8,4.95,-31.05,-32.57,0,*4E
1493960602.22,2837,15.56,73724.0,4.95,-31.11,-32.57,0,*4A
1493960603.47,2838,15.56,73724.3,4.95,-31.51,-33.09,0,*4B
1493960604.72,2839,15.56,73726.5,4.97,-31.29,-32.75,0,*4D
1493960605.95,2840,15.56,73724.0,4.95,-31.11,-32.69,0,*47
1493960607.21,2841,15.56,73724.5,4.95,-31.23,-32.85,0,*45
1493960608.46,2842,15.56,73726.0,4.97,-31.45,-33.09,0,*41
1493960609.68,2843,15.56,73726.5,4.97,-31.29,-32.91,0,*4A
1493960610.93,2844,15.56,73724.5,4.97,-31.11,-32.69,0,*41
1493960612.16,2845,15.56,73726.8,4.95,-31.23,-32.69,0,*43
1493960613.42,2846,15.56,73726.8,4.95,-31.23,-32.75,0,*4D
1493960614.68,2847,15.56,73726.3,4.95,-31.23,-32.85,0,*43
1493960615.93,2848,15.56,73726.0,4.97,-31.29,-32.75,0,*4B
1493960617.17,2849,15.56,73728.0,4.97,-31.11,-32.57,0,*41
1493960618.42,2850,15.56,73726.5,4.97,-31.11,-32.57,0,*49
1493960619.66,2851,15.56,73726.8,4.99,-31.39,-32.97,0,*40
1493960620.93,2852,15.56,73724.8,4.97,-31.51,-33.09,0,*45
1493960622.17,2853,15.56,73724.0,4.97,-31.29,-32.79,0,*4D
1493960623.4,2854,15.56,73724.5,4.97,-31.33,-32.91,0,*47
1493960624.67,2855,15.56,73726.8,4.97,-31.23,-32.75,0,*4D
1493960625.9,2856,15.56,73726.8,4.97,-31.29,-32.91,0,*4E
1493960627.15,2857,15.56,73724.8,4.97,-31.29,-32.75,0,*45
1493960628.36,2858,15.56,73726.5,4.97,-31.33,-33.03,0,*41
1493960629.59,2859,15.56,73726.3,4.97,-31.33,-32.91,0,*4A
1493960630.81,2860,15.56,73726.0,4.97,-31.29,-32.91,0,*4B
1493960632.02,2861,15.56,73724.3,4.97,-31.33,-33.03,0,*4B
1493960633.25,2862,15.56,73722.8,4.97,-31.29,-32.91,0,*49
1493960634.5,2863,15.56,73726.0,4.99,-31.23,-32.79,0,*4A
1493960635.72,2864,15.56,73726.0,4.97,-31.45,-33.03,0,*4F
1493960636.98,2865,15.56,73724.3,4.97,-31.29,-32.75,0,*44
1493960638.23,2866,15.56,73726.0,4.99,-31.23,-32.79,0,*4F
1493960639.49,2867,15.56,73728.0,4.99,-31.23,-32.85,0,*4D
1493960640.74,2868,15.56,73726.3,4.97,-31.11,-32.69,0,*4F
1493960642.02,2869,15.56,73726.5,4.97,-31.23,-32.75,0,*42
1493960643.27,2870,15.56,73724.3,4.97,-31.29,-32.75,0,*40
1493960644.49,2871,15.56,73722.5,4.99,-31.17,-32.63,0,*45
1493960645.77,2872,15.56,73724.8,4.97,-31.23,-32.85,0,*47
1493960646.99,2873,15.56,73724.5,4.99,-31.73,-33.21,0,*42
1493960648.24,2874,15.56,73726.8,4.97,-31.11,-32.39,0,*47
1493960649.5,2875,15.56,73726.8,4.97,-31.11,-32.51,0,*48
1493960650.74,2876,15.56,73724.8,4.99,-30.89,-32.29,0,*4A
1493960651.94,2877,15.56,73726.3,4.99,-30.67,-32.13,0,*42
1493960653.14,2878,15.56,73726.8,4.99,-31.05,-32.35,0,*4C
1493960654.38,2879,15.56,73726.0,5.03,-31.39,-32.97,0,*48
1493960655.63,2880,15.56,73724.8,5.01,-31.17,-32.75,0,*4C
1493960656.87,2881,15.56,73726.0,5.01,-31.17,-32.63,0,*4A
1493960658.14,2882,15.56,73724.5,5.01,-31.11,-32.63,0,*4F
1493960659.39,2883,15.56,73724.3,5.03,-31.11,-32.45,0,*48
1493960660.64,2884,15.56,73730.0,5.01,-30.83,-32.45,0,*47
1493960661.88,2885,15.56,73724.3,5.01,-31.01,-32.45,0,*4D
1493960663.13,2886,15.56,73728.0,5.01,-31.11,-32.91,0,*46
1493960664.37,2887,15.56,73730.8,5.03,-31.39,-32.97,0,*49
1493960665.61,2888,15.56,73730.0,5.01,-31.33,-32.97,0,*4E
1493960666.8,2889,15.56,73726.8,5.03,-31.33,-32.91,0,*4B
1493960668.05,2890,15.56,73726.0,5.01,-31.17,-32.79,0,*41
1493960669.3,2891,15.56,73726.3,5.03,-31.23,-32.79,0,*45
1493960670.56,2892,15.56,73726.3,5.03,-31.23,-32.75,0,*4A
1493960671.8,2893,15.56,73726.5,5.01,-31.17,-32.63,0,*49
1493960673.05,2894,15.56,73724.5,5.01,-31.17,-32.75,0,*49
1493960674.27,2895,15.56,73724.5,5.03,-31.17,-32.75,0,*4A
1493960675.5,2896,15.56,73724.8,5.03,-31.17,-32.79,0,*45
1493960676.74,2897,15.56,73724.3,5.01,-31.17,-32.63,0,*4D
1493960677.99,2898,15.56,73724.5,5.03,-31.11,-32.63,0,*46
1493960679.21,2899,15.56,73726.8,5.03,-31.11,-32.57,0,*40
1493960680.48,2900,15.56,73728.0,5.01,-31.11,-32.63,0,*44
1493960681.74,2901,15.56,73728.0,5.01,-31.39,-32.97,0,*44
1493960682.96,2902,15.56,73724.0,5.03,-31.01,-32.63,0,*45
1493960684.2,2903,15.56,73724.5,5.03,-30.77,-32.29,0,*4A
1493960685.42,2904,15.56,73726.5,5.03,-31.17,-32.63,0,*44
1493960686.67,2905,15.56,73726.3,5.03,-31.11,-32.63,0,*43
1493960687.92,2906,15.56,73724.3,5.03,-31.23,-32.79,0,*4A
1493960689.12,2907,15.56,73726.8,5.07,-31.67,-33.37,0,*44
1493960690.32,2908,15.56,73726.3,5.07,-31.17,-32.69,0,*46
1493960691.57,2909,15.56,73730.3,5.03,-31.11,-32.63,0,*4F
1493960692.81,2910,15.56,73724.8,5.03,-31.39,-33.09,0,*40
1493960694.06,2911,15.56,73726.8,5.03,-31.51,-33.09,0,*4F
1493960695.29,2912,15.56,73728.5,5.01,-31.33,-32.97,0,*4C
1493960696.52,2913,15.56,73722.8,5.03,-31.17,-32.79,0,*49
1493960697.74,2914,15.56,73728.3,5.03,-31.17,-32.75,0,*42
1493960698.97,2915,15.56,73726.0,5.03,-31.23,-32.91,0,*4E
1493960700.19,2916,15.56,73724.3,5.03,-31.17,-32.75,0,*40
1493960701.42,2917,15.56,73726.0,5.03,-31.23,-32.91,0,*4C
1493960702.64,2918,15.56,73726.8,5.01,-31.67,-33.15,0,*4C
1493960703.89,2919,15.56,73728.8,5.01,-31.23,-32.91,0,*40
1493960705.1,2920,15.56,73728.0,5.03,-31.33,-32.97,0,*4F
1493960706.32,2921,15.56,73724.8,5.03,-31.91,-33.55,0,*49
1493960707.54,2922,15.56,73730.5,5.03,-31.57,-33.15,0,*44
1493960708.76,2923,15.56,73726.0,5.03,-31.33,-32.97,0,*4C
1493960710.01,2924,15.56,73724.3,5.01,-31.17,-32.79,0,*4F
1493960711.23,2925,15.56,73724.8,5.01,-31.17,-32.91,0,*48
1493960712.47,2926,15.56,73726.8,5.03,-30.95,-32.45,0,*4B
1493960713.7,2927,15.56,73724.8,5.03,-30.83,-32.45,0,*4D
1493960714.94,2928,15.56,73724.5,5.03,-31.23,-32.97,0,*46
1493960716.2,2929,15.56,73724.5,5.03,-31.85,-33.43,0,*43
1493960717.38,2930,15.56,73726.5,5.03,-31.01,-32.57,0,*43
1493960718.61,2931,15.56,73726.5,5.03,-30.67,-32.19,0,*49
1493960719.83,2932,15.56,73728.0,5.03,-31.01,-32.45,0,*42
1493960721.04,2933,15.5,73726.0,5.03,-31.01,-32.63,0,*47
1493960722.29,2934,15.5,73726.3,5.03,-31.11,-32.79,0,*4A
1493960723.49,2935,15.56,73728.5,5.07,-31.17,-32.91,0,*4F
1493960724.71,2936,15.5,73726.5,5.07,-31.17,-32.85,0,*49
1493960725.94,2937,15.56,73728.0,5.07,-30.95,-32.51,0,*4A
1493960727.17,2938,15.56,73726.5,5.07,-30.95,-32.51,0,*45
1493960728.39,2939,15.56,73726.0,5.07,-31.17,-32.85,0,*46
1493960729.63,2940,15.56,73726.8,5.07,-31.51,-33.09,0,*4F
1493960730.86,2941,15.56,73730.5,5.07,-30.89,-32.39,0,*48
1493960732.08,2942,15.56,73728.3,5.07,-30.89,-32.39,0,*4B
1493960733.29,2943,15.56,73726.3,5.09,-31.05,-32.57,0,*49
1493960734.49,2944,15.5,73724.0,5.07,-31.33,-32.91,0,*4F
1493960735.71,2945,15.56,73730.8,5.07,-31.17,-32.85,0,*4D
1493960736.93,2946,15.56,73726.5,5.07,-31.29,-32.85,0,*43
1493960738.18,2947,15.56,73728.8,5.09,-31.17,-32.85,0,*41
1493960739.42,2948,15.56,73730.8,5.09,-31.17,-32.85,0,*4E
1493960740.68,2949,15.56,73728.3,5.07,-31.11,-32.75,0,*48
1493960741.87,2950,15.5,73726.5,5.07,-31.17,-32.91,0,*4C
1493960743.12,2951,15.5,73726.5,5.09,-31.05,-32.75,0,*4A
1493960744.35,2952,15.56,73726.5,5.07,-31.11,-32.51,0,*44
1493960745.6,2953,15.5,73726.5,5.09,-30.89,-32.51,0,*4B
1493960746.84,2954,15.56,73728.8,5.07,-31.51,-33.09,0,*4A
1493960748.09,2955,15.5,73724.3,5.09,-31.17,-32.85,0,*42
1493960749.31,2956,15.5,73724.0,5.07,-31.67,-33.27,0,*41
1493960750.51,2957,15.56,73728.3,5.07,-31.17,-32.91,0,*4B
1493960751.69,2958,15.5,73724.5,5.07,-31.05,-32.57,0,*4D
1493960752.91,2959,15.56,73730.5,5.07,-30.95,-32.57,0,*44
1493960754.15,2960,15.5,73726.8,5.09,-31.67,-33.27,0,*4A
1493960755.37,2961,15.56,73728.8,5.09,-32.13,-33.67,0,*4F
1493960756.57,2962,15.56,73730.0,5.07,-31.33,-32.91,0,*4B
1493960757.82,2963,15.5,73726.8,5.07,-31.11,-32.85,0,*4F
1493960759.1,2964,15.56,73730.8,5.09,-31.11,-32.75,0,*49
1493960760.38,2965,15.5,73726.0,5.09,-31.11,-32.85,0,*47
1493960761.65,2966,15.56,73730.5,5.09,-31.11,-32.75,0,*4B
1493960762.87,2967,15.5,73726.8,5.09,-31.29,-32.91,0,*4B
1493960764.1,2968,15.56,73730.0,5.09,-31.29,-32.91,0,*44
1493960765.34,2969,15.5,73728.0,5.09,-31.45,-33.09,0,*4F
1493960766.59,2970,15.5,73726.8,5.09,-31.61,-33.37,0,*4C
1493960767.82,2971,15.5,73726.8,5.07,-31.61,-33.03,0,*44
1493960769.02,2972,15.5,73724.5,5.07,-31.45,-32.91,0,*4B
1493960770.22,2973,15.5,73724.3,5.07,-31.29,-32.91,0,*40
1493960771.41,2974,15.5,73726.0,5.07,-31.79,-33.37,0,*4F
1493960772.61,2975,15.5,73724.5,5.07,-31.33,-33.03,0,*47
1493960773.81,2976,15.5,73728.3,5.07,-31.45,-33.03,0,*45
1493960775.05,2977,15.5,73728.8,5.09,-31.51,-33.21,0,*4F
1493960776.3,2978,15.5,73730.5,5.09,-31.79,-33.27,0,*4C
1493960777.49,2979,15.5,73724.0,5.07,-31.33,-33.03,0,*4B
1493960778.68,2980,15.5,73728.0,5.07,-31.67,-33.21,0,*4C
1493960779.88,2981,15.5,73724.5,5.07,-31.29,-32.91,0,*4D
1493960781.13,2982,15.5,73728.0,5.09,-31.29,-32.85,0,*45
1493960782.32,2983,15.5,73726.8,5.07,-31.67,-33.37,0,*48
1493960783.57,2984,15.5,73724.0,5.07,-31.51,-33.09,0,*47
1493960784.82,2985,15.5,73726.5,5.07,-31.61,-33.27,0,*49
1493960786.01,2986,15.5,73724.5,5.07,-31.33,-33.03,0,*4B
1493960787.24,2987,15.5,73726.5,5.07,-31.29,-32.85,0,*4E
1493960788.44,2988,15.5,73724.5,5.07,-31.45,-32.91,0,*4E
1493960789.66,2989,15.5,73728.8,5.09,-31.29,-32.91,0,*4B
1493960790.86,2990,15.5,73730.0,5.07,-31.33,-32.91,0,*46
1493960792.05,2991,15.5,73724.8,5.07,-31.33,-32.91,0,*47
1493960793.25,2992,15.5,73728.5,5.07,-31.45,-33.03,0,*4F
1493960794.47,2993,15.5,73728.0,5.07,-31.61,-33.21,0,*48
1493960795.67,2994,15.5,73724.5,5.07,-31.45,-33.03,0,*49
1493960796.9,2995,15.5,73724.8,5.07,-31.17,-32.85,0,*40
1493960798.15,2996,15.5,73730.5,5.07,-31.11,-32.85,0,*45
1493960799.35,2997,15.5,73728.8,5.07,-31.45,-33.03,0,*4A
1493960800.57,2998,15.5,73726.0,5.07,-31.33,-33.09,0,*4E
1493960801.76,2999,15.5,73728.0,5.07,-31.33,-32.91,0,*4F
1493960803.02,3000,15.5,73726.3,5.07,-31.11,-32.85,0,*42
1493960804.23,3001,15.5,73728.0,5.07,-31.51,-33.21,0,*48
1493960805.43,3002,15.5,73724.3,5.07,-31.45,-33.03,0,*4E
1493960806.63,3003,15.5,73728.8,5.07,-31.33,-32.91,0,*44
1493960807.83,3004,15.5,73730.0,5.07,-31.29,-32.91,0,*48
1493960809.05,3005,15.5,73728.5,5.07,-31.29,-32.85,0,*4C
1493960810.25,3006,15.5,73726.3,5.07,-31.33,-32.91,0,*41
1493960811.47,3007,15.5,73730.8,5.07,-31.51,-33.21,0,*4E
1493960812.69,3008,15.5,73726.8,5.03,-31.57,-33.15,0,*44
1493960813.88,3009,15.5,73724.8,5.07,-31.17,-32.91,0,*48
1493960815.08,3010,15.5,73728.5,5.07,-31.29,-32.91,0,*4D
1493960816.32,3011,15.5,73724.5,5.03,-31.39,-33.09,0,*49
1493960817.55,3012,15.5,73730.0,5.07,-31.67,-33.27,0,*49
1493960818.75,3013,15.5,73724.5,5.07,-31.45,-33.03,0,*4E
1493960819.94,3014,15.5,73728.5,5.07,-31.33,-32.91,0,*42
1493960821.14,3015,15.5,73726.3,5.07,-31.33,-33.03,0,*49
1493960822.33,3016,15.5,73728.3,5.07,-31.33,-33.03,0,*4A
1493960823.53,3017,15.5,73730.8,5.07,-31.45,-33.03,0,*4A
1493960824.78,3018,15.5,73726.8,5.07,-31.85,-33.49,0,*47
1493960826.0,3019,15.5,73726.5,5.07,-31.61,-33.21,0,*42
1493960827.22,3020,15.5,73724.8,5.03,-31.33,-33.09,0,*41
1493960828.44,3021,15.5,73730.8,5.03,-31.67,-33.31,0,*4A
1493960829.66,3022,15.5,73726.8,5.03,-31.91,-33.67,0,*43
1493960830.91,3023,15.5,73726.3,5.03,-31.73,-33.31,0,*4D
1493960832.16,3024,15.5,73724.8,5.03,-31.73,-33.31,0,*4A
1493960833.41,3025,15.5,73724.0,5.03,-31.73,-33.31,0,*4B
1493960834.66,3026,15.5,73724.8,5.03,-31.57,-33.27,0,*49
1493960835.91,3027,15.5,73724.8,5.01,-31.67,-33.27,0,*49
1493960837.1,3028,15.5,73728.0,5.03,-31.67,-33.15,0,*45
1493960838.32,3029,15.5,73724.8,5.03,-31.67,-33.27,0,*45
1493960839.57,3030,15.5,73726.5,5.03,-31.85,-33.43,0,*43
1493960840.85,3031,15.5,73728.0,5.01,-31.73,-33.31,0,*4C
1493960842.12,3032,15.5,73726.5,5.01,-31.73,-33.31,0,*4F
1493960843.36,3033,15.5,73728.0,5.01,-31.33,-32.97,0,*47
1493960844.62,3034,15.5,73730.3,5.01,-31.39,-32.97,0,*4A
1493960845.86,3035,15.5,73724.8,5.01,-31.33,-32.97,0,*41
1493960847.13,3036,15.5,73728.3,5.01,-31.51,-33.09,0,*40
1493960848.37,3037,15.5,73724.5,5.01,-31.67,-33.31,0,*4F
1493960849.59,3038,15.5,73728.3,5.03,-31.67,-33.27,0,*45
1493960850.84,3039,15.5,73730.5,5.01,-31.51,-33.15,0,*42
1493960852.09,3040,15.5,73724.5,5.03,-31.85,-33.43,0,*44
1493960853.33,3041,15.44,73726.8,5.01,-31.67,-33.27,0,*49
1493960854.61,3042,15.5,73728.0,5.01,-31.85,-33.43,0,*44
1493960855.89,3043,15.44,73724.0,5.01,-31.85,-33.43,0,*45
1493960857.11,3044,15.44,73726.3,4.99,-31.73,-33.37,0,*48
1493960858.34,3045,15.5,73730.0,4.99,-31.79,-33.31,0,*45
1493960859.57,3046,15.5,73726.5,4.99,-31.61,-33.21,0,*4E
1493960860.77,3047,15.5,73730.0,4.99,-31.79,-33.37,0,*41
1493960862.02,3048,15.5,73724.3,4.99,-31.73,-33.31,0,*42
1493960863.27,3049,15.44,73724.8,4.97,-31.79,-33.43,0,*42
1493960864.5,3050,15.5,73726.0,4.99,-31.79,-33.49,0,*4E
1493960865.77,3051,15.5,73724.3,4.97,-31.61,-33.27,0,*40
1493960867.02,3052,15.5,73728.5,4.97,-31.67,-33.27,0,*45
1493960868.3,3053,15.5,73726.5,4.97,-31.95,-33.43,0,*4B
1493960869.52,3054,15.44,73724.0,4.97,-31.79,-33.37,0,*4D
1493960870.77,3055,15.44,73726.8,4.97,-31.79,-33.27,0,*4D
1493960872.01,3056,15.5,73728.5,4.97,-32.01,-33.61,0,*40
1493960873.29,3057,15.5,73728.0,4.97,-31.85,-33.27,0,*4C
1493960874.51,3058,15.5,73726.0,4.99,-31.57,-33.21,0,*44
1493960875.76,3059,15.44,73724.5,4.97,-31.79,-33.43,0,*43
1493960877.01,3060,15.44,73726.5,4.97,-31.67,-33.27,0,*44
1493960878.23,3061,15.5,73726.0,4.97,-31.67,-33.37,0,*44
1493960879.48,3062,15.5,73728.3,4.97,-31.45,-33.09,0,*4A
1493960880.68,3063,15.5,73732.8,4.99,-31.45,-33.15,0,*48
1493960881.9,3064,15.44,73726.3,4.97,-31.45,-33.03,0,*46
1493960883.14,3065,15.5,73728.8,4.97,-31.51,-33.21,0,*42
1493960884.37,3066,15.44,73724.5,4.97,-31.79,-33.37,0,*4C
1493960885.59,3067,15.44,73724.8,4.97,-31.79,-33.37,0,*4D
1493960886.87,3068,15.5,73726.3,4.97,-31.61,-33.27,0,*4A
1493960888.08,3069,15.44,73724.3,4.97,-31.67,-33.37,0,*4C
1493960889.28,3070,15.5,73728.8,4.95,-31.67,-33.37,0,*46
1493960890.5,3071,15.44,73726.5,4.95,-31.51,-33.21,0,*45
1493960891.76,3072,15.5,73730.8,4.95,-31.95,-33.43,0,*4A
1493960893.02,3073,15.44,73724.5,4.95,-31.95,-33.43,0,*4B
1493960894.25,3074,15.44,73728.3,4.95,-31.61,-33.21,0,*43
1493960895.49,3075,15.44,73728.3,4.95,-31.51,-33.09,0,*4B
1493960896.7,3076,15.44,73726.0,4.95,-31.79,-33.37,0,*4F
1493960897.97,3077,15.44,73726.8,4.93,-31.91,-33.61,0,*4D
1493960899.21,3078,15.44,73728.8,4.95,-31.95,-33.61,0,*40
1493960900.44,3079,15.44,73726.8,4.95,-32.01,-33.61,0,*4F
1493960901.72,3080,15.44,73726.3,4.93,-31.85,-33.43,0,*40
1493960902.97,3081,15.44,73726.0,4.93,-31.91,-33.67,0,*42
1493960904.23,3082,15.5,73730.8,4.93,-32.01,-33.49,0,*47
1493960905.48,3083,15.5,73730.3,4.93,-32.01,-33.49,0,*46
1493960906.76,3084,15.44,73724.0,4.91,-31.73,-33.43,0,*4F
1493960908.03,3085,15.44,73726.8,4.91,-32.07,-33.73,0,*4D
1493960909.27,3086,15.44,73728.5,4.91,-32.01,-33.61,0,*4B
1493960910.51,3087,15.44,73726.3,4.91,-31.67,-33.31,0,*4C
1493960911.78,3088,15.44,73730.0,4.91,-31.85,-33.43,0,*4A
1493960913.05,3089,15.44,73728.3,4.91,-31.57,-33.31,0,*41